Other Public Products
Issued by NWS Grand Forks, ND

Home | Current Version | Previous Version | Graphics & Text | Print | Product List | Glossary On
Versions: 1 2 3 4 5 6 7 8 9 10 11 12 13 14 15 16 17 18 19 20 21 22 23 24 25 26 27 28 29 30 31 32 33 34 35 36 37 38 39 40 41 42 43 44 45 46 47 48 49 50
855
FPUS83 KFGF 230731
OPUFGF
PRAIRIE TO PINES WEATHER ROUNDUP
NATIONAL WEATHER SERVICE EASTERN NORTH DAKOTA/GRAND FORKS ND
200 AM CDT SAT JUL 23 2016

 **SATELLITE DATA USED TO AUGMENT SKY COVER AT AUTOMATED STATIONS**
 *****  WEATHER ACROSS EASTERN NORTH DAKOTA  *****

CITY           SKY/WX    TMP DP  RH WIND       PRES   REMARKS
GRAND FORKS    CLOUDY    73  65  75 E5        29.95S
GRAND FORKS AF CLOUDY    70  66  87 E5        29.94F
GRAND CITY NWS   N/A     72 N/A N/A E6          N/A
BUXTON           N/A     73  69  89 E6          N/A
DEVILS LAKE    CLOUDY    71  65  81 E9        29.94F
FARGO          CLOUDY    74  65  73 E9        29.93F
WAHPETON ARPT  PTSUNNY   72  66  83 E7        29.93F
$$

 *****  WEATHER ACROSS CENTRAL AND WESTERN NORTH DAKOTA  *****

CITY           SKY/WX    TMP DP  RH WIND       PRES   REMARKS
JAMESTOWN      CLOUDY    70  62  76 NE3       29.89F
BISMARCK       MOCLDY    70  63  78 SE14      29.86F
MINOT          CLOUDY    75  63  66 SW5       29.89S
MINOT AFB      CLOUDY    70  63  77 E6        29.87F
GARRISON         N/A     67  64  90 NW10      29.90R
WILLISTON      MOCLDY    72  62  71 SE17G28   29.81F
DICKINSON      MOCLDY    63  58  83 SE15      29.86F
HETTINGER      CLOUDY    67  60  78 SE21G29   29.91F
$$

 *****  OTHER OBSERVATIONS NORTHEAST NORTH DAKOTA  *****

CITY           SKY/WX    TMP DP  RH WIND       PRES   REMARKS
WALHALLA       FAIR      68  64  88 CALM      29.96S
LANGDON        FAIR      66  64  94 CALM      29.99S
CAVALIER       FAIR      70  64  83 CALM      29.96S
GRAFTON        FAIR      70  70 100 E5        29.97S
CANDO          FAIR      66  66 100 E8        29.96F
FORT TOTTEN      N/A     71  64  78 E7        29.95S
ROLLA            N/A     66  66 100 SE13      29.95F
RUGBY          NOT AVBL
 ***** THE ABOVE OBSERVATIONS ARE NON NWS ARE NOT QUALITY
        CONTROLLED AND MAY MIS-REPORT RAIN FOR SNOW...
$$

 *****  OTHER OBSERVATIONS SOUTHEAST NORTH DAKOTA *****

CITY           SKY/WX    TMP DP  RH WIND       PRES   REMARKS
COOPERSTOWN    NOT AVBL
VALLEY CITY    LGT RAIN  72  68  88 E3        29.97S
OAKES            N/A    N/A N/A N/A MISG        N/A
GWINNER        FAIR      72  70  94 NE7       29.93F
SHEYENNE NWR     N/A     71  69  94 E5        29.95S
BUFFALO          N/A     70  64  82 E2          N/A
WYNDMERE         N/A     70  70 100 E2          N/A
 ***** THE ABOVE OBSERVATIONS ARE NON NWS ARE NOT QUALITY
       CONTROLLED AND MAY MIS-REPORT RAIN FOR SNOW...
$$

  *****  WEATHER ACROSS NORTHERN MINNESOTA  *****

CITY           SKY/WX    TMP DP  RH WIND       PRES   REMARKS
FLAG ISLAND    CLOUDY    70  63  78 CALM      29.99S
WARROAD        CLOUDY    63  57  82 CALM      30.01S
ROSEAU         CLOUDY    61  55  82 CALM      29.99F
HALLOCK        CLOUDY    66  63  88 E7        29.96S
THF RVR FALLS  CLOUDY    68  62  81 E8        29.99F
HALSTAD        NOT AVBL
FOSSTON        CLOUDY    66  63  88 CALM      30.00F
BAUDETTE       PTCLDY    62  59  90 CALM      30.01S
WASKISH        CLOUDY    61  59  94 CALM      30.01S
CROOKSTON      CLOUDY    72  63  73 E7        29.97S
$$
  *****  WEATHER ACROSS CENTRAL AND WEST MINNESOTA  *****

CITY           SKY/WX    TMP DP  RH WIND       PRES   REMARKS
BEMIDJI        CLOUDY    64  63  94 CALM      30.02S
PARK RAPIDS    CLOUDY    72  64  76 CALM      30.01F
WADENA         MOCLDY    68  64  88 NE6       30.00R
DETROIT LAKES  CLOUDY    73  63  68 E3        30.00F
MOORHEAD       CLOUDY    73  66  78 E7        29.94F
FERGUS FALLS   PTCLDY    73  68  83 E5        29.96F
ELBOW LAKE     FAIR      75  69  81 NE6       29.96F
MORRIS MN      MOCLDY    72  70  94 E6        29.94F
STAPLES        CLOUDY    70  63  78 CALM      30.00S
WHEATON        CLOUDY    72  70  94 E7        29.94F
$$
  *****  WEATHER ELSEWHERE ACROSS MINNESOTA  *****

CITY           SKY/WX    TMP DP  RH WIND       PRES   REMARKS
DULUTH         CLEAR     68  61  78 N3        30.01F
INTRNTL FALLS  CLOUDY    57  55  93 CALM      30.01S
ELY            MOCLDY    57  54  88 CALM      30.02S
CLOQUET        PTCLDY    64  57  77 CALM      30.01S
BRAINERD       PTCLDY    71  67  87 CALM      30.00F
HIBBING        PTCLDY    57  57 100 CALM      30.02F
ALEXANDRIA     CLOUDY    72  68  87 NE3       30.00F
SAINT CLOUD    MOCLDY    69  68  96 CALM      29.98S
MINNEAPOLIS    MOCLDY    79  67  66 E6        29.97F
$$

  *****  WEATHER ACROSS SOUTH DAKOTA  *****

CITY           SKY/WX    TMP DP  RH WIND       PRES   REMARKS
SIOUX FALLS    PTCLDY    80  78  94 E9        29.90F
BROOKINGS      CLOUDY    74  69  85 NE7       29.93F
WATERTOWN      CLOUDY    78  66  66 E6        29.94F
HURON          CLOUDY    78  73  84 NE7       29.89F
SISSETON         N/A     70  69  97 CALM      29.92F
ABERDEEN       MOCLDY    74  68  81 SE6       29.92F
MITCHELL       CLOUDY    80  78  94 E7        29.87F
PIERRE         CLOUDY    78  67  68 E18       29.82F
MOBRIDGE       MOCLDY    70  61  73 N7        29.94R
RAPID CITY     LGT RAIN  75  56  51 E10       29.91F
$$

  *****  SOME WEATHER IN NEARBY STATES *****

CITY           SKY/WX    TMP DP  RH WIND       PRES   REMARKS
GLASGOW MT     MOCLDY    72  58  61 W18       29.83R
GREAT FALLS MT CLEAR     57  39  51 W8        30.03R
CHEYENNE WY    MOCLDY    73  44  35 CALM      30.18S
SCOTTSBLUFF NE MOCLDY    65  60  84 NE3       30.01S
OMAHA NE       CLOUDY    84  77  79 S10       29.89F HX  94
DES MOINES IA  PTCLDY    82  77  84 SE8       29.95F HX  90
DAVENPORT IA   CLEAR     74  72  93 CALM      29.99F FOG
CHICAGO IL     MOCLDY    81  76  84 W6        30.00R
EAU CLAIRE WI  CLEAR     68  67  96 N3        29.99S
LA CROSSE WI   PTCLDY    78  75  90 SE6       29.96F
$$

  *****  SOME NATIONAL WEATHER *****

CITY           SKY/WX    TMP DP  RH WIND       PRES   REMARKS
LA GUARDIA NY  PTCLDY    84  67  56 W7        29.81S
RALEIGH NC     PTCLDY    73  70  90 SW3       30.01F
ATLANTA GA     PTCLDY    78  72  81 SW5       30.04F
NEW ORLEANS LA PTCLDY    82  77  84 S3        30.00F HX  90
OKLAHOMA CITY  CLEAR     75  69  81 S5        29.98S
ALBUQUERQUE NM MOCLDY    82  50  32 NW14      30.21R
SALT LAKE CITY PTCLDY    77  43  29 SE3       30.06S
LOS ANGELES CA PTCLDY    75  58  55 S3        29.82F
BOISE ID       CLEAR     72  40  31 NW12      30.09R
SEATTLE WA     MOCLDY    60  56  86 SW3       30.29S
$$

*** WEATHER ACROSS MANITOBA...SASKATCHEWAN AND ONTARIO ***
                ***ONTARIO***

CITY           SKY/WX    TMP DP  RH WIND       PRES   REMARKS
GERALDTON      PTCLDY    61  59  94 W3        29.97R
THUNDER BAY    CLEAR     63  59  88 W5        29.96R
SIOUX LOOKOUT  PTCLDY    63  59  88 E3        29.99F
TORONTO        CLEAR     75  57  53 NW14      29.89R
BIG TROUT LK   CLEAR     50  48  93 E3        30.00R
PICKLE LAKE    NOT AVBL
DRYDEN         CLEAR     64  59  82 NE3       29.99F
KENORA         MOCLDY    66  55  68 N3        30.01S
$$
                *** MANITOBA***

CITY           SKY/WX    TMP DP  RH WIND       PRES   REMARKS
BRANDON        MOCLDY    64  63  94 E12       29.92F
DAUPHIN        CLOUDY    64  59  82 E6        29.88F
ISLAND LAKE    CLEAR     57  54  88 CALM      29.98R
PILOT MOUND      N/A     66  64  94 E8          N/A
THE PAS        MOCLDY    61  57  88 SE8       29.89F
THOMPSON       CLEAR     43  39  87 VRB2      29.90
WINNIPEG       MOCLDY    66  61  82 SE7       29.97S
LYNN LAKE      PTCLDY    54  46  76 MISG      29.81F
CHURCHILL      PTCLDY    46  41  81 S9        29.89S
GILLAM         PTCLDY    48  39  71 SE6       29.94R
$$
                ***SASKATCHEWAN***

CITY           SKY/WX    TMP DP  RH WIND       PRES   REMARKS
ESTEVAN        MOCLDY    68  63  83 SE7       29.84R THUNDER
KINDERSLEY     PTCLDY    59  54  82 SE12      29.80F
LLOYDMINSTER   MOCLDY    64  59  82 NW20G30   29.84R
PRINCE ALBERT  CLOUDY    68  61  77 S12G20    29.80F
REGINA         LGT RAIN  64  61  88 NE7G17    29.85F
YORKTON        MOCLDY    66  59  77 CALM      29.89F   C1F1C2F2C3F3C4F4C5F5C6F6C7F7C8F8C9F9CaFaCbFbCcFcCdFdCe!



USA.gov is the U.S. government's official web portal to all federal, state and local government web resources and services.